Content
SEND FEEDBACK

Daily
Averages
Monthly
Summary
United States of America

GREENFIELD, MASSACHUSETTS


Home > North America > United States > Massachusetts
Elevation: 190 feet     Latitude: 42 37N     Longitude: 072 33W

WEATHER
 
SELECT A DAY
Number of Records: 215,820;   Date Range: 7/1/96 - 10/23/14
 
SHARE

PRINT THIS DATA

[ ← Previous Day ]
WEATHER ALMANAC - JANUARY 29, 2014
[ Next Day → ]
[ °C ]   °F
Weather ElementAverageHighLow
Temperature13.3 °F21 °F (1:52 pm)3.9 °F (11:52 pm)
Dewpoint-5.3 °F3 °F (1:52 am)-11.9 °F (10:52 am)
Humidity46.7 %73 % (7:52 am)25 % (2:52 pm)
Barometer30.11 in30.23 in (11:52 pm)29.98 in (2:52 pm)
Wind Speed5.3 mph11.5 mph (10:52 am)
Wind Gust20.7 mph (12:52 pm)
Weather ElementAverage
Visibility10 mi
Wind DirectionSSE (166.5 °)

Weather ElementTotal
Precipitation---
Heating Degree Days52.6 (Base 65)
Averaged from 23 records on January 29, 2014
WEATHER CONDITIONS BREAKOUT
WIND DIRECTION BREAKOUT
WEATHER BY HOUR - JANUARY 29, 2014
[ °C ]   °F
Local TimeTemperatureDewpointHumidityBarometerVisibilityWind DirectionWind SpeedGust SpeedPrecipitationEventsConditions
1:52 AM10.9 °F3.0 °F70 %30.18 in10.0 miCalmOvercast
2:52 AM10.9 °F1.9 °F67 %30.17 in10.0 miSSW (200°)3.5 mphOvercast
3:52 AM10.9 °F0.0 °F61 %30.16 in10.0 miCalmOvercast
4:52 AM10.9 °F1.0 °F64 %30.14 in10.0 miCalmOvercast
5:52 AM10.0 °F0.0 °F64 %30.11 in10.0 miCalmClear
6:52 AM8.1 °F0.0 °F70 %30.12 in10.0 miCalmScattered Clouds
7:52 AM7.0 °F0.0 °F73 %30.13 in10.0 miCalmOvercast
8:52 AM9.0 °F1.9 °F73 %30.12 in10.0 miCalmPartly Cloudy
9:52 AM12.9 °F-7.1 °F41 %30.12 in10.0 miWSW (240°)8.1 mphClear
10:52 AM15.1 °F-11.9 °F29 %30.09 in10.0 miWNW (290°)11.5 mphClear
11:52 AM17.1 °F-9.0 °F31 %30.05 in10.0 miWNW (290°)10.4 mphClear
12:52 PM19.0 °F-9.9 °F27 %30.01 in10.0 miWSW (250°)10.4 mph20.7 mph0.00 inClear
1:52 PM21.0 °F-9.0 °F26 %29.99 in10.0 miWest (270°)8.1 mph18.4 mphClear
2:52 PM21.0 °F-9.9 °F25 %29.98 in10.0 miWSW (250°)10.4 mphClear
3:52 PM21.0 °F-9.9 °F25 %29.99 in10.0 miWSW (240°)11.5 mphClear
4:52 PM19.0 °F-9.0 °F29 %30.03 in10.0 miWest (260°)9.2 mph18.4 mphClear
5:52 PM16.0 °F-8.0 °F34 %30.06 in10.0 miWest (260°)5.8 mphClear
6:52 PM16.0 °F-8.0 °F34 %30.10 in10.0 miWest (280°)6.9 mphClear
7:52 PM15.1 °F-9.0 °F34 %30.14 in10.0 miWest (280°)9.2 mphClear
8:52 PM10.9 °F-8.0 °F42 %30.17 in10.0 miWest (270°)8.1 mphClear
9:52 PM10.9 °F-8.0 °F42 %30.20 in10.0 miWSW (240°)3.5 mphClear
10:52 PM9.0 °F-7.1 °F48 %30.21 in10.0 miCalmClear
11:52 PM3.9 °F-6.0 °F64 %30.23 in10.0 miSSW (210°)5.8 mphClear
Hourly data recorded from KORE, located miles away from Greenfield, Massachusetts







STORIES FROM OUR PARTNERS